Year,Month,Day,Hour,Minute,Value (Times are PST for temperature in C)
2017,12,13,00,00,6.70
2017,12,13,00,01,6.60
2017,12,13,00,02,6.60
2017,12,13,00,03,6.60
2017,12,13,00,04,6.60
2017,12,13,00,05,6.50
2017,12,13,00,06,6.50
2017,12,13,00,07,6.40
2017,12,13,00,08,6.40
2017,12,13,00,09,6.40
2017,12,13,00,10,6.40
2017,12,13,00,11,6.40
2017,12,13,00,12,6.40
2017,12,13,00,13,6.40
2017,12,13,00,14,6.30
2017,12,13,00,15,6.30
2017,12,13,00,16,6.30
2017,12,13,00,17,6.30
2017,12,13,00,18,6.30
2017,12,13,00,19,6.30
2017,12,13,00,20,6.30
2017,12,13,00,21,6.20
2017,12,13,00,22,6.20
2017,12,13,00,23,6.20
2017,12,13,00,24,6.20
2017,12,13,00,25,6.20
2017,12,13,00,26,6.10
2017,12,13,00,27,6.10
2017,12,13,00,28,6.10
2017,12,13,00,29,6.00
2017,12,13,00,30,6.00
2017,12,13,00,31,5.90
2017,12,13,00,32,5.90
2017,12,13,00,33,5.80
2017,12,13,00,34,5.80
2017,12,13,00,35,5.80
2017,12,13,00,36,5.80
2017,12,13,00,37,5.80
2017,12,13,00,38,5.80
2017,12,13,00,39,5.80
2017,12,13,00,40,5.80
2017,12,13,00,41,5.70
2017,12,13,00,42,5.70
2017,12,13,00,43,5.70
2017,12,13,00,44,5.70
2017,12,13,00,45,5.70
2017,12,13,00,46,5.70
2017,12,13,00,47,5.70
2017,12,13,00,48,5.60
2017,12,13,00,49,5.60
2017,12,13,00,50,5.60
2017,12,13,00,51,5.50
2017,12,13,00,52,5.50
2017,12,13,00,53,5.40
2017,12,13,00,54,5.40
2017,12,13,00,55,5.30
2017,12,13,00,56,5.30
2017,12,13,00,57,5.20
2017,12,13,00,58,5.20
2017,12,13,00,59,5.10
2017,12,13,01,00,5.10
2017,12,13,01,01,5.10
2017,12,13,01,02,5.00
2017,12,13,01,03,4.90
2017,12,13,01,04,4.90
2017,12,13,01,05,4.80
2017,12,13,01,06,4.80
2017,12,13,01,07,4.80
2017,12,13,01,08,4.80
2017,12,13,01,09,4.80
2017,12,13,01,10,4.70
2017,12,13,01,11,4.70
2017,12,13,01,12,4.70
2017,12,13,01,13,4.60
2017,12,13,01,14,4.60
2017,12,13,01,15,4.50
2017,12,13,01,16,4.50
2017,12,13,01,17,4.40
2017,12,13,01,18,4.40
2017,12,13,01,19,4.30
2017,12,13,01,20,4.30
2017,12,13,01,21,4.30
2017,12,13,01,22,4.20
2017,12,13,01,23,4.20
2017,12,13,01,24,4.20
2017,12,13,01,25,4.20
2017,12,13,01,26,4.20
2017,12,13,01,27,4.20
2017,12,13,01,28,4.20
2017,12,13,01,29,4.20
2017,12,13,01,30,4.20
2017,12,13,01,31,4.20
2017,12,13,01,32,4.20
2017,12,13,01,33,4.20
2017,12,13,01,34,4.20
2017,12,13,01,35,4.20
2017,12,13,01,36,4.20
2017,12,13,01,37,4.20
2017,12,13,01,38,4.20
2017,12,13,01,39,4.20
2017,12,13,01,40,4.20
2017,12,13,01,41,4.20
2017,12,13,01,42,4.10
2017,12,13,01,43,4.10
2017,12,13,01,44,4.10
2017,12,13,01,45,4.10
2017,12,13,01,46,4.00
2017,12,13,01,47,4.00
2017,12,13,01,48,3.90
2017,12,13,01,49,3.90
2017,12,13,01,50,3.90
2017,12,13,01,51,3.90
2017,12,13,01,52,3.80
2017,12,13,01,53,3.80
2017,12,13,01,54,3.80
2017,12,13,01,55,3.80
2017,12,13,01,56,3.80
2017,12,13,01,57,3.80
2017,12,13,01,58,3.80
2017,12,13,01,59,3.80
2017,12,13,02,00,3.80
2017,12,13,02,01,3.80
2017,12,13,02,02,3.90
2017,12,13,02,03,3.90
2017,12,13,02,04,3.90
2017,12,13,02,05,3.90
2017,12,13,02,06,3.80
2017,12,13,02,07,3.80
2017,12,13,02,08,3.80
2017,12,13,02,09,3.80
2017,12,13,02,10,3.80
2017,12,13,02,11,3.80
2017,12,13,02,12,3.70
2017,12,13,02,13,3.60
2017,12,13,02,14,3.50
2017,12,13,02,15,3.50
2017,12,13,02,16,3.50
2017,12,13,02,17,3.40
2017,12,13,02,18,3.40
2017,12,13,02,19,3.40
2017,12,13,02,20,3.40
2017,12,13,02,21,3.40
2017,12,13,02,22,3.40
2017,12,13,02,23,3.30
2017,12,13,02,24,3.30
2017,12,13,02,25,3.30
2017,12,13,02,26,3.30
2017,12,13,02,27,3.30
2017,12,13,02,28,3.30
2017,12,13,02,29,3.30
2017,12,13,02,30,3.30
2017,12,13,02,31,3.30
2017,12,13,02,32,3.20
2017,12,13,02,33,3.20
2017,12,13,02,34,3.20
2017,12,13,02,35,3.20
2017,12,13,02,36,3.20
2017,12,13,02,37,3.20
2017,12,13,02,38,3.20
2017,12,13,02,39,3.20
2017,12,13,02,40,3.20
2017,12,13,02,41,3.10
2017,12,13,02,42,3.10
2017,12,13,02,43,3.00
2017,12,13,02,44,2.90
2017,12,13,02,45,2.90
2017,12,13,02,46,2.80
2017,12,13,02,47,2.80
2017,12,13,02,48,2.80
2017,12,13,02,49,2.80
2017,12,13,02,50,2.70
2017,12,13,02,51,2.70
2017,12,13,02,52,2.70
2017,12,13,02,53,2.80
2017,12,13,02,54,2.80
2017,12,13,02,55,2.70
2017,12,13,02,56,2.70
2017,12,13,02,57,2.70
2017,12,13,02,58,2.70
2017,12,13,02,59,2.60
2017,12,13,03,00,2.60
2017,12,13,03,01,2.70
2017,12,13,03,02,2.70
2017,12,13,03,03,2.70
2017,12,13,03,04,2.70
2017,12,13,03,05,2.70
2017,12,13,03,06,2.60
2017,12,13,03,07,2.60
2017,12,13,03,08,2.60
2017,12,13,03,09,2.60
2017,12,13,03,10,2.60
2017,12,13,03,11,2.60
2017,12,13,03,12,2.60
2017,12,13,03,13,2.60
2017,12,13,03,14,2.50
2017,12,13,03,15,2.50
2017,12,13,03,16,2.60
2017,12,13,03,17,2.60
2017,12,13,03,18,2.60
2017,12,13,03,19,2.70
2017,12,13,03,20,2.80
2017,12,13,03,21,2.80
2017,12,13,03,22,2.90
2017,12,13,03,23,3.00
2017,12,13,03,24,3.00
2017,12,13,03,25,3.10
2017,12,13,03,26,3.10
2017,12,13,03,27,3.10
2017,12,13,03,28,3.10
2017,12,13,03,29,3.10
2017,12,13,03,30,3.20
2017,12,13,03,31,3.20
2017,12,13,03,32,3.20
2017,12,13,03,33,3.20
2017,12,13,03,34,3.20
2017,12,13,03,35,3.20
2017,12,13,03,36,3.10
2017,12,13,03,37,3.10
2017,12,13,03,38,3.00
2017,12,13,03,39,3.00
2017,12,13,03,40,2.90
2017,12,13,03,41,2.80
2017,12,13,03,42,2.80
2017,12,13,03,43,2.70
2017,12,13,03,44,2.60
2017,12,13,03,45,2.50
2017,12,13,03,46,2.50
2017,12,13,03,47,2.40
2017,12,13,03,48,2.30
2017,12,13,03,49,2.30
2017,12,13,03,50,2.20
2017,12,13,03,51,2.20
2017,12,13,03,52,2.20
2017,12,13,03,53,2.20
2017,12,13,03,54,2.20
2017,12,13,03,55,2.10
2017,12,13,03,56,2.00
2017,12,13,03,57,2.00
2017,12,13,03,58,1.90
2017,12,13,03,59,2.00
2017,12,13,04,00,2.00
2017,12,13,04,01,2.00
2017,12,13,04,02,2.10
2017,12,13,04,03,2.10
2017,12,13,04,04,2.20
2017,12,13,04,05,2.40
2017,12,13,04,06,2.50
2017,12,13,04,07,2.70
2017,12,13,04,08,2.70
2017,12,13,04,09,2.70
2017,12,13,04,10,2.70
2017,12,13,04,11,2.60
2017,12,13,04,12,2.60
2017,12,13,04,13,2.60
2017,12,13,04,14,2.50
2017,12,13,04,15,2.50
2017,12,13,04,16,2.50
2017,12,13,04,17,2.40
2017,12,13,04,18,2.40
2017,12,13,04,19,2.40
2017,12,13,04,20,2.40
2017,12,13,04,21,2.30
2017,12,13,04,22,2.40
2017,12,13,04,23,2.40
2017,12,13,04,24,2.40
2017,12,13,04,25,2.40
2017,12,13,04,26,2.40
2017,12,13,04,27,2.30
2017,12,13,04,28,2.30
2017,12,13,04,29,2.30
2017,12,13,04,30,2.30
2017,12,13,04,31,2.20
2017,12,13,04,32,2.10
2017,12,13,04,33,2.10
2017,12,13,04,34,2.00
2017,12,13,04,35,2.10
2017,12,13,04,36,2.10
2017,12,13,04,37,2.10
2017,12,13,04,38,2.20
2017,12,13,04,39,2.20
2017,12,13,04,40,2.20
2017,12,13,04,41,2.20
2017,12,13,04,42,2.20
2017,12,13,04,43,2.20
2017,12,13,04,44,2.30
2017,12,13,04,45,2.30
2017,12,13,04,46,2.30
2017,12,13,04,47,2.40
2017,12,13,04,48,2.40
2017,12,13,04,49,2.50
2017,12,13,04,50,2.50
2017,12,13,04,51,2.60
2017,12,13,04,52,2.60
2017,12,13,04,53,2.60
2017,12,13,04,54,2.70
2017,12,13,04,55,2.70
2017,12,13,04,56,2.70
2017,12,13,04,57,2.70
2017,12,13,04,58,2.60
2017,12,13,04,59,2.60
2017,12,13,05,00,2.60
2017,12,13,05,01,2.50
2017,12,13,05,02,2.50
2017,12,13,05,03,2.40
2017,12,13,05,04,2.40
2017,12,13,05,05,2.40
2017,12,13,05,06,2.40
2017,12,13,05,07,2.40
2017,12,13,05,08,2.40
2017,12,13,05,09,2.40
2017,12,13,05,10,2.40
2017,12,13,05,11,2.40
2017,12,13,05,12,2.40
2017,12,13,05,13,2.40
2017,12,13,05,14,2.40
2017,12,13,05,15,2.40
2017,12,13,05,16,2.40
2017,12,13,05,17,2.40
2017,12,13,05,18,2.40
2017,12,13,05,19,2.40
2017,12,13,05,20,2.40
2017,12,13,05,21,2.40
2017,12,13,05,22,2.40
2017,12,13,05,23,2.50
2017,12,13,05,24,2.50
2017,12,13,05,25,2.50
2017,12,13,05,26,2.50
2017,12,13,05,27,2.60
2017,12,13,05,28,2.60
2017,12,13,05,29,2.70
2017,12,13,05,30,2.70
2017,12,13,05,31,2.70
2017,12,13,05,32,2.70
2017,12,13,05,33,2.70
2017,12,13,05,34,2.70
2017,12,13,05,35,2.70
2017,12,13,05,36,2.70
2017,12,13,05,37,2.80
2017,12,13,05,38,2.80
2017,12,13,05,39,2.80
2017,12,13,05,40,2.70
2017,12,13,05,41,2.60
2017,12,13,05,42,2.50
2017,12,13,05,43,2.40
2017,12,13,05,44,2.30
2017,12,13,05,45,2.20
2017,12,13,05,46,2.20
2017,12,13,05,47,2.20
2017,12,13,05,48,2.20
2017,12,13,05,49,2.20
2017,12,13,05,50,2.20
2017,12,13,05,51,2.20
2017,12,13,05,52,2.20
2017,12,13,05,53,2.20
2017,12,13,05,54,2.20
2017,12,13,05,55,2.20
2017,12,13,05,56,2.30
2017,12,13,05,57,2.30
2017,12,13,05,58,2.40
2017,12,13,05,59,2.50
2017,12,13,06,00,2.60
2017,12,13,06,01,2.80
2017,12,13,06,02,2.80
2017,12,13,06,03,2.80
2017,12,13,06,04,2.90
2017,12,13,06,05,2.90
2017,12,13,06,06,2.90
2017,12,13,06,07,2.90
2017,12,13,06,08,3.00
2017,12,13,06,09,3.00
2017,12,13,06,10,3.00
2017,12,13,06,11,3.00
2017,12,13,06,12,3.00
2017,12,13,06,13,3.10
2017,12,13,06,14,3.10
2017,12,13,06,15,3.00
2017,12,13,06,16,3.00
2017,12,13,06,17,3.00
2017,12,13,06,18,3.00
2017,12,13,06,19,2.90
2017,12,13,06,20,3.00
2017,12,13,06,21,3.00
2017,12,13,06,22,3.00
2017,12,13,06,23,3.00
2017,12,13,06,24,3.10
2017,12,13,06,25,3.10
2017,12,13,06,26,3.10
2017,12,13,06,27,3.10
2017,12,13,06,28,3.10
2017,12,13,06,29,3.10
2017,12,13,06,30,3.20
2017,12,13,06,31,3.20
2017,12,13,06,32,3.20
2017,12,13,06,33,3.20
2017,12,13,06,34,3.20
2017,12,13,06,35,3.20
2017,12,13,06,36,3.20
2017,12,13,06,37,3.20
2017,12,13,06,38,3.20
2017,12,13,06,39,3.20
2017,12,13,06,40,3.20
2017,12,13,06,41,3.20
2017,12,13,06,42,3.20
2017,12,13,06,43,3.10
2017,12,13,06,44,3.00
2017,12,13,06,45,3.00
2017,12,13,06,46,3.00
2017,12,13,06,47,3.00
2017,12,13,06,48,3.00
2017,12,13,06,49,3.10
2017,12,13,06,50,3.10
2017,12,13,06,51,3.10
2017,12,13,06,52,3.10
2017,12,13,06,53,3.10
2017,12,13,06,54,3.10
2017,12,13,06,55,3.10
2017,12,13,06,56,3.10
2017,12,13,06,57,3.10
2017,12,13,06,58,3.10
2017,12,13,06,59,3.10
2017,12,13,07,00,3.10
2017,12,13,07,01,3.10
2017,12,13,07,02,3.10
2017,12,13,07,03,3.10
2017,12,13,07,04,3.10
2017,12,13,07,05,3.20
2017,12,13,07,06,3.20
2017,12,13,07,07,3.20
2017,12,13,07,08,3.20
2017,12,13,07,09,3.20
2017,12,13,07,10,3.20
2017,12,13,07,11,3.20
2017,12,13,07,12,3.10
2017,12,13,07,13,3.10
2017,12,13,07,14,3.10
2017,12,13,07,15,3.10
2017,12,13,07,16,3.10
2017,12,13,07,17,3.10
2017,12,13,07,18,3.10
2017,12,13,07,19,3.20
2017,12,13,07,20,3.30
2017,12,13,07,21,3.30
2017,12,13,07,22,3.30
2017,12,13,07,23,3.40
2017,12,13,07,24,3.40
2017,12,13,07,25,3.40
2017,12,13,07,26,3.40
2017,12,13,07,27,3.40
2017,12,13,07,28,3.40
2017,12,13,07,29,3.40
2017,12,13,07,30,3.30
2017,12,13,07,31,3.30
2017,12,13,07,32,3.30
2017,12,13,07,33,3.30
2017,12,13,07,34,3.40
2017,12,13,07,35,3.40
2017,12,13,07,36,3.40
2017,12,13,07,37,3.50
2017,12,13,07,38,3.50
2017,12,13,07,39,3.50
2017,12,13,07,40,3.50
2017,12,13,07,41,3.40
2017,12,13,07,42,3.40
2017,12,13,07,43,3.30
2017,12,13,07,44,3.30
2017,12,13,07,45,3.30
2017,12,13,07,46,3.20
2017,12,13,07,47,3.20
2017,12,13,07,48,3.20
2017,12,13,07,49,3.20
2017,12,13,07,50,3.20
2017,12,13,07,51,3.20
2017,12,13,07,52,3.20
2017,12,13,07,53,3.20
2017,12,13,07,54,3.10
2017,12,13,07,55,3.00
2017,12,13,07,56,2.90
2017,12,13,07,57,2.90
2017,12,13,07,58,2.90
2017,12,13,07,59,2.90
2017,12,13,08,00,2.90
2017,12,13,08,01,2.80
2017,12,13,08,02,2.80
2017,12,13,08,03,2.80
2017,12,13,08,04,2.80
2017,12,13,08,05,2.80
2017,12,13,08,06,2.80
2017,12,13,08,07,2.80
2017,12,13,08,08,2.80
2017,12,13,08,09,2.80
2017,12,13,08,10,2.80
2017,12,13,08,11,2.80
2017,12,13,08,12,2.90
2017,12,13,08,13,2.90
2017,12,13,08,14,3.00
2017,12,13,08,15,3.00
2017,12,13,08,16,3.10
2017,12,13,08,17,3.10
2017,12,13,08,18,3.20
2017,12,13,08,19,3.40
2017,12,13,08,20,3.50
2017,12,13,08,21,3.60
2017,12,13,08,22,3.70
2017,12,13,08,23,3.90
2017,12,13,08,24,4.00
2017,12,13,08,25,4.20
2017,12,13,08,26,4.30
2017,12,13,08,27,4.40
2017,12,13,08,28,4.50
2017,12,13,08,29,4.50
2017,12,13,08,30,4.60
2017,12,13,08,31,4.50
2017,12,13,08,32,4.50
2017,12,13,08,33,4.50
2017,12,13,08,34,4.50
2017,12,13,08,35,4.50
2017,12,13,08,36,4.40
2017,12,13,08,37,4.40
2017,12,13,08,38,4.40
2017,12,13,08,39,4.40
2017,12,13,08,40,4.40
2017,12,13,08,41,4.40
2017,12,13,08,42,4.40
2017,12,13,08,43,4.40
2017,12,13,08,44,4.40
2017,12,13,08,45,4.40
2017,12,13,08,46,4.40
2017,12,13,08,47,4.40
2017,12,13,08,48,4.40
2017,12,13,08,49,4.30
2017,12,13,08,50,4.20
2017,12,13,08,51,4.20
2017,12,13,08,52,4.10
2017,12,13,08,53,4.10
2017,12,13,08,54,4.00
2017,12,13,08,55,4.00
2017,12,13,08,56,4.00
2017,12,13,08,57,3.90
2017,12,13,08,58,3.90
2017,12,13,08,59,3.90
2017,12,13,09,00,3.90
2017,12,13,09,01,4.00
2017,12,13,09,02,4.00
2017,12,13,09,03,4.10
2017,12,13,09,04,4.20
2017,12,13,09,05,4.30
2017,12,13,09,06,4.30
2017,12,13,09,07,4.50
2017,12,13,09,08,4.70
2017,12,13,09,09,4.80
2017,12,13,09,10,5.00
2017,12,13,09,11,5.10
2017,12,13,09,12,5.20
2017,12,13,09,13,5.20
2017,12,13,09,14,5.20
2017,12,13,09,15,5.00
2017,12,13,09,16,4.90
2017,12,13,09,17,4.90
2017,12,13,09,18,4.80
2017,12,13,09,19,4.70
2017,12,13,09,20,4.70
2017,12,13,09,21,4.70
2017,12,13,09,22,4.70
2017,12,13,09,23,4.70
2017,12,13,09,24,4.70
2017,12,13,09,25,4.70
2017,12,13,09,26,4.70
2017,12,13,09,27,4.70
2017,12,13,09,28,4.80
2017,12,13,09,29,4.80
2017,12,13,09,30,4.90
2017,12,13,09,31,5.00
2017,12,13,09,32,5.10
2017,12,13,09,33,5.20
2017,12,13,09,34,5.30
2017,12,13,09,35,5.30
2017,12,13,09,36,5.30
2017,12,13,09,37,5.40
2017,12,13,09,38,5.40
2017,12,13,09,39,5.40
2017,12,13,09,40,5.40
2017,12,13,09,41,5.40
2017,12,13,09,42,5.40
2017,12,13,09,43,5.40
2017,12,13,09,44,5.40
2017,12,13,09,45,5.40
2017,12,13,09,46,5.40
2017,12,13,09,47,5.40
2017,12,13,09,48,5.40
2017,12,13,09,49,5.40
2017,12,13,09,50,5.40
2017,12,13,09,51,5.40
2017,12,13,09,52,5.40
2017,12,13,09,53,5.30
2017,12,13,09,54,5.30
2017,12,13,09,55,5.30
2017,12,13,09,56,5.30
2017,12,13,09,57,5.30
2017,12,13,09,58,5.30
2017,12,13,09,59,5.30
2017,12,13,10,00,5.30
2017,12,13,10,01,5.30
2017,12,13,10,02,5.30
2017,12,13,10,03,5.30
2017,12,13,10,04,5.30
2017,12,13,10,05,5.30
2017,12,13,10,06,5.30
2017,12,13,10,07,5.30
2017,12,13,10,08,5.30
2017,12,13,10,09,5.30
2017,12,13,10,10,5.30
2017,12,13,10,11,5.30
2017,12,13,10,12,5.40
2017,12,13,10,13,5.40
2017,12,13,10,14,5.40
2017,12,13,10,15,5.40
2017,12,13,10,16,5.40
2017,12,13,10,17,5.40
2017,12,13,10,18,5.50
2017,12,13,10,19,5.50
2017,12,13,10,20,5.50
2017,12,13,10,21,5.50
2017,12,13,10,22,5.60
2017,12,13,10,23,5.60
2017,12,13,10,24,5.70
2017,12,13,10,25,5.70
2017,12,13,10,26,5.70
2017,12,13,10,27,5.80
2017,12,13,10,28,5.80
2017,12,13,10,29,5.80
2017,12,13,10,30,5.80
2017,12,13,10,31,5.80
2017,12,13,10,32,5.80
2017,12,13,10,33,5.80
2017,12,13,10,34,5.80
2017,12,13,10,35,5.80
2017,12,13,10,36,5.80
2017,12,13,10,37,5.80
2017,12,13,10,38,5.80
2017,12,13,10,39,5.80
2017,12,13,10,40,5.80
2017,12,13,10,41,5.80
2017,12,13,10,42,5.80
2017,12,13,10,43,5.70
2017,12,13,10,44,5.70
2017,12,13,10,45,5.70
2017,12,13,10,46,5.70
2017,12,13,10,47,5.70
2017,12,13,10,48,5.70
2017,12,13,10,49,5.70
2017,12,13,10,50,5.70
2017,12,13,10,51,5.70
2017,12,13,10,52,5.70
2017,12,13,10,53,5.80
2017,12,13,10,54,5.80
2017,12,13,10,55,5.80
2017,12,13,10,56,5.90
2017,12,13,10,57,5.90
2017,12,13,10,58,5.90
2017,12,13,10,59,6.00
2017,12,13,11,00,6.00
2017,12,13,11,01,6.10
2017,12,13,11,02,6.10
2017,12,13,11,03,6.20
2017,12,13,11,04,6.20
2017,12,13,11,05,6.20
2017,12,13,11,06,6.30
2017,12,13,11,07,6.30
2017,12,13,11,08,6.30
2017,12,13,11,09,6.30
2017,12,13,11,10,6.40
2017,12,13,11,11,6.50
2017,12,13,11,12,6.50
2017,12,13,11,13,6.60
2017,12,13,11,14,6.60
2017,12,13,11,15,6.70
2017,12,13,11,16,6.70
2017,12,13,11,17,6.80
2017,12,13,11,18,6.80
2017,12,13,11,19,6.80
2017,12,13,11,20,6.90
2017,12,13,11,21,7.00
2017,12,13,11,22,7.10
2017,12,13,11,23,7.20
2017,12,13,11,24,7.30
2017,12,13,11,25,7.30
2017,12,13,11,26,7.40
2017,12,13,11,27,7.50
2017,12,13,11,28,7.50
2017,12,13,11,29,7.60
2017,12,13,11,30,7.70
2017,12,13,11,31,7.80
2017,12,13,11,32,7.80
2017,12,13,11,33,7.90
2017,12,13,11,34,8.00
2017,12,13,11,35,8.00
2017,12,13,11,36,8.10
2017,12,13,11,37,8.10
2017,12,13,11,38,8.20
2017,12,13,11,39,8.30
2017,12,13,11,40,8.30
2017,12,13,11,41,8.40
2017,12,13,11,42,8.50
2017,12,13,11,43,8.50
2017,12,13,11,44,8.60
2017,12,13,11,45,8.60
2017,12,13,11,46,8.60
2017,12,13,11,47,8.60
2017,12,13,11,48,8.70
2017,12,13,11,49,8.70
2017,12,13,11,50,8.70
2017,12,13,11,51,8.80
2017,12,13,11,52,8.80
2017,12,13,11,53,8.80
2017,12,13,11,54,8.90
2017,12,13,11,55,9.00
2017,12,13,11,56,9.00
2017,12,13,11,57,9.00
2017,12,13,11,58,8.90
2017,12,13,11,59,8.90
2017,12,13,12,00,8.90
2017,12,13,12,01,8.90
2017,12,13,12,02,8.90
2017,12,13,12,03,8.90
2017,12,13,12,04,8.90
2017,12,13,12,05,8.90
2017,12,13,12,06,8.90
2017,12,13,12,07,8.90
2017,12,13,12,08,8.90
2017,12,13,12,09,8.90
2017,12,13,12,10,8.90
2017,12,13,12,11,9.00
2017,12,13,12,12,9.00
2017,12,13,12,13,9.10
2017,12,13,12,14,9.10
2017,12,13,12,15,9.10
2017,12,13,12,16,9.20
2017,12,13,12,17,9.20
2017,12,13,12,18,9.20
2017,12,13,12,19,9.30
2017,12,13,12,20,9.30
2017,12,13,12,21,9.30
2017,12,13,12,22,9.40
2017,12,13,12,23,9.40
2017,12,13,12,24,9.50
2017,12,13,12,25,9.50
2017,12,13,12,26,9.60
2017,12,13,12,27,9.60
2017,12,13,12,28,9.70
2017,12,13,12,29,9.70
2017,12,13,12,30,9.70
2017,12,13,12,31,9.70
2017,12,13,12,32,9.70
2017,12,13,12,33,9.70
2017,12,13,12,34,9.70
2017,12,13,12,35,9.70
2017,12,13,12,36,9.70
2017,12,13,12,37,9.70
2017,12,13,12,38,9.70
2017,12,13,12,39,9.80
2017,12,13,12,40,9.90
2017,12,13,12,41,9.90
2017,12,13,12,42,9.90
2017,12,13,12,43,10.00
2017,12,13,12,44,10.00
2017,12,13,12,45,10.00
2017,12,13,12,46,10.00
2017,12,13,12,47,10.00
2017,12,13,12,48,10.00
2017,12,13,12,49,10.10
2017,12,13,12,50,10.10
2017,12,13,12,51,10.10
2017,12,13,12,52,10.20
2017,12,13,12,53,10.20
2017,12,13,12,54,10.20
2017,12,13,12,55,10.20
2017,12,13,12,56,10.20
2017,12,13,12,57,10.20
2017,12,13,12,58,10.20
2017,12,13,12,59,10.30
2017,12,13,13,00,10.30
2017,12,13,13,01,10.30
2017,12,13,13,02,10.40
2017,12,13,13,03,10.40
2017,12,13,13,04,10.50
2017,12,13,13,05,10.50
2017,12,13,13,06,10.60
2017,12,13,13,07,10.60
2017,12,13,13,08,10.60
2017,12,13,13,09,10.60
2017,12,13,13,10,10.70
2017,12,13,13,11,10.60
2017,12,13,13,12,10.60
2017,12,13,13,13,10.60
2017,12,13,13,14,10.70
2017,12,13,13,15,10.60
2017,12,13,13,16,10.60
2017,12,13,13,17,10.60
2017,12,13,13,18,10.60
2017,12,13,13,19,10.50
2017,12,13,13,20,10.50
2017,12,13,13,21,10.50
2017,12,13,13,22,10.40
2017,12,13,13,23,10.40
2017,12,13,13,24,10.40
2017,12,13,13,25,10.30
2017,12,13,13,26,10.30
2017,12,13,13,27,10.30
2017,12,13,13,28,10.30
2017,12,13,13,29,10.30
2017,12,13,13,30,10.30
2017,12,13,13,31,10.30
2017,12,13,13,32,10.20
2017,12,13,13,33,10.20
2017,12,13,13,34,10.20
2017,12,13,13,35,10.20
2017,12,13,13,36,10.20
2017,12,13,13,37,10.20
2017,12,13,13,38,10.20
2017,12,13,13,39,10.20
2017,12,13,13,40,10.20
2017,12,13,13,41,10.10
2017,12,13,13,42,10.10
2017,12,13,13,43,10.10
2017,12,13,13,44,10.10
2017,12,13,13,45,10.10
2017,12,13,13,46,10.10
2017,12,13,13,47,10.10
2017,12,13,13,48,10.10
2017,12,13,13,49,10.10
2017,12,13,13,50,10.10
2017,12,13,13,51,10.10
2017,12,13,13,52,10.10
2017,12,13,13,53,10.10
2017,12,13,13,54,10.00
2017,12,13,13,55,10.00
2017,12,13,13,56,10.00
2017,12,13,13,57,10.00
2017,12,13,13,58,9.90
2017,12,13,13,59,9.90
2017,12,13,14,00,9.90
2017,12,13,14,01,9.90
2017,12,13,14,02,9.80
2017,12,13,14,03,9.80
2017,12,13,14,04,9.80
2017,12,13,14,05,9.80
2017,12,13,14,06,9.80
2017,12,13,14,07,9.80
2017,12,13,14,08,9.80
2017,12,13,14,09,9.80
2017,12,13,14,10,9.80
2017,12,13,14,11,9.80
2017,12,13,14,12,9.80
2017,12,13,14,13,9.80
2017,12,13,14,14,9.80
2017,12,13,14,15,9.80
2017,12,13,14,16,9.80
2017,12,13,14,17,9.80
2017,12,13,14,18,9.80
2017,12,13,14,19,9.80
2017,12,13,14,20,9.80
2017,12,13,14,21,9.80
2017,12,13,14,22,9.80
2017,12,13,14,23,9.80
2017,12,13,14,24,9.80
2017,12,13,14,25,9.80
2017,12,13,14,26,9.80
2017,12,13,14,27,9.80
2017,12,13,14,28,9.80
2017,12,13,14,29,9.80
2017,12,13,14,30,9.80
2017,12,13,14,31,9.80
2017,12,13,14,32,9.80
2017,12,13,14,33,9.90
2017,12,13,14,34,9.90
2017,12,13,14,35,9.90
2017,12,13,14,36,9.90
2017,12,13,14,37,10.00
2017,12,13,14,38,10.00
2017,12,13,14,39,10.00
2017,12,13,14,40,10.00
2017,12,13,14,41,10.00
2017,12,13,14,42,10.00
2017,12,13,14,43,10.00
2017,12,13,14,44,10.00
2017,12,13,14,45,10.00
2017,12,13,14,46,10.00
2017,12,13,14,47,10.00
2017,12,13,14,48,9.90
2017,12,13,14,49,9.90
2017,12,13,14,50,9.90
2017,12,13,14,51,9.90
2017,12,13,14,52,9.90
2017,12,13,14,53,9.90
2017,12,13,14,54,9.90
2017,12,13,14,55,9.90
2017,12,13,14,56,9.80
2017,12,13,14,57,9.80
2017,12,13,14,58,9.80
2017,12,13,14,59,9.80
2017,12,13,15,00,9.80
2017,12,13,15,01,9.80
2017,12,13,15,02,9.80
2017,12,13,15,03,9.80
2017,12,13,15,04,9.80
2017,12,13,15,05,9.80
2017,12,13,15,06,9.80
2017,12,13,15,07,9.80
2017,12,13,15,08,9.80
2017,12,13,15,09,9.80
2017,12,13,15,10,9.80
2017,12,13,18,17,5.90
2017,12,13,18,18,5.90
2017,12,13,18,19,5.90
2017,12,13,18,20,5.90
2017,12,13,18,21,6.00
2017,12,13,18,22,6.10
2017,12,13,18,23,6.10
2017,12,13,18,24,6.20
2017,12,13,18,25,6.20
2017,12,13,18,26,6.30
2017,12,13,18,27,6.30
2017,12,13,18,28,6.40
2017,12,13,18,29,6.50
2017,12,13,18,30,6.50
2017,12,13,18,31,6.50
2017,12,13,18,32,6.60
2017,12,13,18,33,6.60
2017,12,13,18,34,6.70
2017,12,13,18,35,6.70
2017,12,13,18,36,6.70
2017,12,13,18,37,6.70
2017,12,13,18,38,6.70
2017,12,13,18,39,6.70
2017,12,13,18,40,6.70
2017,12,13,18,41,6.70
2017,12,13,18,42,6.60
2017,12,13,18,43,6.60
2017,12,13,18,44,6.60
2017,12,13,18,45,6.60
2017,12,13,18,46,6.60
2017,12,13,18,47,6.60
2017,12,13,18,48,6.60
2017,12,13,18,49,6.60
2017,12,13,18,50,6.60
2017,12,13,18,51,6.60
2017,12,13,18,52,6.50
2017,12,13,18,53,6.50
2017,12,13,18,54,6.50
2017,12,13,18,55,6.50
2017,12,13,18,56,6.50
2017,12,13,18,57,6.50
2017,12,13,18,58,6.50
2017,12,13,18,59,6.50
2017,12,13,19,00,6.50
2017,12,13,19,01,6.50
2017,12,13,19,02,6.40
2017,12,13,19,03,6.40
2017,12,13,19,04,6.40
2017,12,13,19,05,6.40
2017,12,13,19,06,6.40
2017,12,13,19,07,6.30
2017,12,13,19,08,6.30
2017,12,13,19,09,6.20
2017,12,13,19,10,6.20
2017,12,13,19,11,6.20
2017,12,13,19,12,6.10
2017,12,13,19,13,6.10
2017,12,13,19,14,6.00
2017,12,13,19,15,5.90
2017,12,13,19,16,5.90
2017,12,13,19,17,5.90
2017,12,13,19,18,5.90
2017,12,13,19,19,5.80
2017,12,13,19,20,5.80
2017,12,13,19,21,5.70
2017,12,13,19,22,5.70
2017,12,13,19,23,5.70
2017,12,13,19,24,5.70
2017,12,13,19,25,5.70
2017,12,13,19,26,5.60
2017,12,13,19,27,5.60
2017,12,13,19,28,5.60
2017,12,13,19,29,5.60
2017,12,13,19,30,5.60
2017,12,13,19,31,5.60
2017,12,13,19,32,5.60
2017,12,13,19,33,5.60
2017,12,13,19,34,5.60
2017,12,13,19,35,5.60
2017,12,13,19,36,5.60
2017,12,13,19,37,5.60
2017,12,13,19,38,5.70
2017,12,13,19,39,5.70
2017,12,13,19,40,5.80
2017,12,13,19,41,5.80
2017,12,13,19,42,5.80
2017,12,13,19,43,5.80
2017,12,13,19,44,5.80
2017,12,13,19,45,5.80
2017,12,13,19,46,5.80
2017,12,13,19,47,5.80
2017,12,13,19,48,5.80
2017,12,13,19,49,5.80
2017,12,13,19,50,5.80
2017,12,13,19,51,5.80
2017,12,13,19,52,5.90
2017,12,13,19,53,5.90
2017,12,13,19,54,5.90
2017,12,13,19,55,6.00
2017,12,13,19,56,6.00
2017,12,13,19,57,6.10
2017,12,13,19,58,6.10
2017,12,13,19,59,6.20
2017,12,13,20,00,6.20
2017,12,13,20,01,6.20
2017,12,13,20,02,6.30
2017,12,13,20,03,6.30
2017,12,13,20,04,6.30
2017,12,13,20,05,6.40
2017,12,13,20,06,6.40
2017,12,13,20,07,6.40
2017,12,13,20,08,6.40
2017,12,13,20,09,6.40
2017,12,13,20,10,6.40
2017,12,13,20,11,6.50
2017,12,13,20,12,6.50
2017,12,13,20,13,6.50
2017,12,13,20,14,6.50
2017,12,13,20,15,6.60
2017,12,13,20,16,6.60
2017,12,13,20,17,6.60
2017,12,13,20,18,6.60
2017,12,13,20,19,6.50
2017,12,13,20,20,6.50
2017,12,13,20,21,6.50
2017,12,13,20,22,6.50
2017,12,13,20,23,6.50
2017,12,13,20,24,6.50
2017,12,13,20,25,6.50
2017,12,13,20,26,6.50
2017,12,13,20,27,6.50
2017,12,13,20,28,6.50
2017,12,13,20,29,6.50
2017,12,13,20,30,6.50
2017,12,13,20,31,6.60
2017,12,13,20,32,6.60
2017,12,13,20,33,6.60
2017,12,13,20,34,6.60
2017,12,13,20,35,6.70
2017,12,13,20,36,6.70
2017,12,13,20,37,6.70
2017,12,13,20,38,6.70
2017,12,13,20,39,6.70
2017,12,13,20,40,6.60
2017,12,13,20,41,6.60
2017,12,13,20,42,6.60
2017,12,13,20,43,6.60
2017,12,13,20,44,6.60
2017,12,13,20,45,6.60
2017,12,13,20,46,6.60
2017,12,13,20,47,6.60
2017,12,13,20,48,6.60
2017,12,13,20,49,6.60
2017,12,13,20,50,6.60
2017,12,13,20,51,6.60
2017,12,13,20,52,6.60
2017,12,13,20,53,6.60
2017,12,13,20,54,6.70
2017,12,13,20,55,6.70
2017,12,13,20,56,6.70
2017,12,13,20,57,6.70
2017,12,13,20,58,6.70
2017,12,13,20,59,6.70
2017,12,13,21,00,6.70
2017,12,13,21,01,6.70
2017,12,13,21,02,6.60
2017,12,13,21,03,6.60
2017,12,13,21,04,6.70
2017,12,13,21,05,6.70
2017,12,13,21,06,6.60
2017,12,13,21,07,6.70
2017,12,13,21,08,6.70